Weather reports worldwide

Advertisment
Zamora, Spain (8130): temperature & dewpoint: 18.08.2019 07:00:00 - 24.08.2019 07:00:00 (CEST)Zamora, Spain (8130): wind speed: 18.08.2019 07:00:00 - 24.08.2019 07:00:00 (CEST)Zamora, Spain (8130): wind direction: 18.08.2019 07:00:00 - 24.08.2019 07:00:00 (CEST)Zamora, Spain (8130): reduced air pressure: 18.08.2019 07:00:00 - 24.08.2019 07:00:00 (CEST)Zamora, Spain (8130): visibility: 18.08.2019 07:00:00 - 24.08.2019 07:00:00 (CEST)Zamora, Spain (8130): precipitation: 18.08.2019 07:00:00 - 24.08.2019 07:00:00 (CEST)
Date & Time tt [°C] td [°C] ff [km/h] ff [kn] dd ppp [hPa] vv [km] rr [mm]
24.08.2019 07:00:00 16,7 6,5 4 2 NE 1018,1 20 0,0
24.08.2019 06:00:00 18,1 6,0 8 4 N 1017,6 20 0,0
24.08.2019 05:00:00 19,0 5,4 5 3 N 1017,4 20 -
24.08.2019 04:00:00 20,3 5,5 4 2 WNW 1017,2 20 0,0
24.08.2019 03:00:00 21,0 5,3 2 1 SSW 1017,0 20 0,0
24.08.2019 02:00:00 21,9 4,4 4 2 NW 1016,8 20 -
24.08.2019 01:00:00 22,2 6,4 2 1 NE 1016,1 20 0,0
24.08.2019 00:00:00 24,1 8,1 2 1 SW 1015,4 20 0,0
23.08.2019 23:00:00 25,8 6,4 2 1 NE 1014,9 20 -
23.08.2019 22:00:00 28,2 4,5 4 2 SE 1013,9 20 0,0
23.08.2019 21:00:00 30,0 6,0 5 3 SSE 1013,1 20 0,0
23.08.2019 20:00:00 32,4 5,8 8 4 E 1012,7 20 -
23.08.2019 19:00:00 34,5 5,0 8 4 SE 1012,6 20 0,0
23.08.2019 18:00:00 34,5 5,0 4 2 SE 1013,0 20 0,0
23.08.2019 17:00:00 34,3 4,9 5 3 NW 1013,5 20 -
23.08.2019 16:00:00 34,4 4,9 5 3 S 1014,0 20 0,0
23.08.2019 15:00:00 32,8 1,8 4 2 S 1015,0 20 0,0
23.08.2019 14:00:00 31,3 5,7 5 3 S 1015,8 20 -
23.08.2019 13:00:00 28,1 7,9 9 5 S 1017,0 20 0,0
23.08.2019 12:00:00 24,1 8,5 9 5 ENE 1018,4 20 0,0
23.08.2019 11:00:00 21,2 7,8 8 4 ENE 1019,4 20 -
23.08.2019 10:00:00 17,4 6,3 9 5 N 1020,3 20 0,0
23.08.2019 09:00:00 13,5 5,1 8 4 NNE 1021,6 20 0,0
23.08.2019 08:00:00 12,4 4,1 4 2 NE 1021,8 20 -
23.08.2019 07:00:00 13,0 3,9 5 3 ENE 1021,2 20 0,0
23.08.2019 06:00:00 13,6 3,1 4 2 NNE 1020,8 20 0,0
23.08.2019 05:00:00 14,3 2,2 5 3 NNE 1020,5 20 -
23.08.2019 04:00:00 15,9 0,8 8 4 NNE 1020,0 20 0,0
23.08.2019 03:00:00 17,3 -2,9 4 2 NNE 1019,8 20 0,0
23.08.2019 02:00:00 18,8 -5,3 2 1 N 1019,4 20 -
23.08.2019 01:00:00 20,1 -5,0 4 2 NE 1018,9 20 0,0
23.08.2019 00:00:00 21,6 -3,0 2 1 NNE 1018,3 20 0,0
22.08.2019 23:00:00 23,4 -2,3 4 2 ENE 1017,8 20 -
22.08.2019 22:00:00 25,4 0,1 4 2 NNE 1016,8 20 0,0
22.08.2019 21:00:00 28,3 2,5 5 3 NE 1015,8 20 0,0
22.08.2019 20:00:00 31,1 3,2 8 4 ENE 1014,9 20 -
22.08.2019 19:00:00 32,2 3,2 8 4 ENE 1015,1 20 0,0
22.08.2019 18:00:00 32,5 4,3 8 4 NE 1015,3 20 0,0
22.08.2019 17:00:00 32,0 3,9 8 4 ENE 1015,6 20 -
22.08.2019 16:00:00 31,2 5,6 5 3 N 1016,3 20 0,0
22.08.2019 15:00:00 30,7 10,1 5 3 SE 1016,7 20 0,0
22.08.2019 14:00:00 28,7 10,8 8 4 E 1017,8 19 -
22.08.2019 13:00:00 26,0 11,0 11 6 NNE 1019,5 20 0,0
22.08.2019 12:00:00 23,1 10,5 9 5 ENE 1020,7 20 0,0
22.08.2019 11:00:00 19,8 9,4 11 6 NE 1021,7 20 -
22.08.2019 10:00:00 17,0 9,4 11 6 NE 1022,4 20 0,0
22.08.2019 09:00:00 15,4 9,7 13 7 ENE 1022,6 20 0,0
22.08.2019 08:00:00 14,6 10,0 13 7 NNE 1022,4 20 -
22.08.2019 07:00:00 15,0 10,8 13 7 NNE 1021,9 20 0,0
22.08.2019 06:00:00 15,6 11,4 11 6 NNE 1021,7 20 0,0
22.08.2019 05:00:00 16,3 12,1 15 8 NNE 1021,4 20 -
22.08.2019 04:00:00 17,0 12,1 13 7 NNE 1021,0 20 0,0
22.08.2019 03:00:00 18,2 12,2 9 5 N 1020,4 20 0,0
22.08.2019 02:00:00 20,2 12,2 8 4 NNE 1019,9 20 -
22.08.2019 01:00:00 21,0 11,9 5 3 NE 1019,4 20 0,0
22.08.2019 00:00:00 22,3 9,8 5 3 NE 1018,3 20 0,0
21.08.2019 23:00:00 24,3 10,9 4 2 NE 1017,0 15 -
21.08.2019 22:00:00 26,4 11,3 4 2 SE 1015,8 20 0,0
21.08.2019 21:00:00 28,3 10,9 4 2 SSE 1014,6 20 0,0
21.08.2019 20:00:00 29,8 10,8 8 4 SE 1014,0 16 -
21.08.2019 19:00:00 31,2 11,6 4 2 SW 1014,1 20 0,0
21.08.2019 18:00:00 31,4 12,7 5 3 SE 1013,9 20 0,0
21.08.2019 17:00:00 30,6 12,0 5 3 E 1014,4 20 -
21.08.2019 16:00:00 28,8 14,2 5 3 NE 1015,2 20 0,0
21.08.2019 15:00:00 26,9 12,9 4 2 NNE 1016,4 20 0,0
21.08.2019 14:00:00 25,0 14,2 5 3 E 1017,4 20 -
21.08.2019 13:00:00 23,6 12,9 11 6 NE 1018,2 20 0,0
21.08.2019 12:00:00 20,2 11,7 11 6 ENE 1019,6 20 0,0
21.08.2019 11:00:00 17,9 10,8 13 7 NNE 1020,3 20 -
21.08.2019 10:00:00 16,3 10,2 13 7 NNE 1020,5 20 0,0
21.08.2019 09:00:00 15,1 9,7 15 8 NNE 1021,1 20 0,0
21.08.2019 08:00:00 14,3 9,5 11 6 NNE 1021,3 20 -
21.08.2019 07:00:00 14,5 9,5 15 8 NNE 1020,9 20 0,0
21.08.2019 06:00:00 14,7 9,7 15 8 NNE 1020,8 20 0,0
21.08.2019 05:00:00 15,0 9,8 11 6 NNE 1021,0 20 -
21.08.2019 04:00:00 15,2 10,2 11 6 NE 1021,0 20 0,0
21.08.2019 03:00:00 15,5 9,8 11 6 NE 1021,4 20 0,0
21.08.2019 02:00:00 16,1 9,5 13 7 ENE 1021,3 20 -
21.08.2019 01:00:00 17,1 9,3 13 7 ENE 1021,2 20 0,0
21.08.2019 00:00:00 18,1 8,4 11 6 ENE 1020,5 20 0,0
20.08.2019 23:00:00 19,1 8,1 11 6 ENE 1020,2 20 -
20.08.2019 22:00:00 20,7 8,0 11 6 ENE 1019,0 20 0,0
20.08.2019 21:00:00 22,7 8,4 18 10 ENE 1018,0 20 0,0
20.08.2019 20:00:00 24,8 7,9 18 10 ENE 1017,1 20 -
20.08.2019 19:00:00 25,8 6,9 16 9 NE 1016,9 20 0,0
20.08.2019 18:00:00 26,3 8,3 16 9 ENE 1016,7 20 0,0
20.08.2019 17:00:00 26,3 7,8 15 8 NE 1017,1 20 -
20.08.2019 16:00:00 26,0 8,9 18 10 NE 1017,7 20 0,0
20.08.2019 15:00:00 24,9 10,0 16 9 ENE 1018,3 20 0,0
20.08.2019 14:00:00 24,0 10,3 16 9 ENE 1019,0 20 -
20.08.2019 13:00:00 22,8 10,6 18 10 ENE 1019,5 20 0,0
20.08.2019 12:00:00 21,0 11,1 18 10 ENE 1020,3 20 0,0
20.08.2019 11:00:00 18,6 11,2 21 11 ENE 1020,9 20 -
20.08.2019 10:00:00 16,6 10,9 21 11 ENE 1021,1 20 0,0
20.08.2019 09:00:00 14,8 9,8 11 6 NE 1021,3 20 0,0
20.08.2019 08:00:00 13,7 9,9 5 3 ENE 1020,9 20 -
20.08.2019 07:00:00 14,0 10,0 8 4 NE 1019,9 20 0,0
20.08.2019 06:00:00 14,6 10,0 9 5 NE 1019,3 20 0,0
20.08.2019 05:00:00 14,9 10,1 9 5 NNE 1019,0 20 -
20.08.2019 04:00:00 15,5 10,3 9 5 NE 1018,6 20 0,0
20.08.2019 03:00:00 16,2 10,5 15 8 ENE 1018,8 20 0,0
20.08.2019 02:00:00 16,5 10,6 16 9 ENE 1018,9 20 -
20.08.2019 01:00:00 16,9 10,7 15 8 ENE 1018,5 20 0,0
20.08.2019 00:00:00 17,6 10,7 21 11 ENE 1017,6 20 0,0
19.08.2019 23:00:00 19,2 11,0 16 9 ENE 1016,5 20 -
19.08.2019 22:00:00 21,1 10,9 13 7 ENE 1015,5 20 0,0
19.08.2019 21:00:00 22,3 10,4 13 7 ENE 1014,2 20 0,0
19.08.2019 20:00:00 24,2 10,8 16 9 ENE 1013,5 20 -
19.08.2019 19:00:00 26,3 10,0 5 3 SSE 1012,7 20 0,0
19.08.2019 18:00:00 26,7 10,4 5 3 E 1012,9 20 0,0
19.08.2019 17:00:00 26,1 10,3 5 3 ENE 1013,3 20 -
19.08.2019 16:00:00 26,1 11,1 9 5 NE 1013,6 20 0,0
19.08.2019 15:00:00 25,4 11,2 8 4 E 1014,3 20 0,0
19.08.2019 14:00:00 23,9 11,6 8 4 NNE 1014,8 20 -
19.08.2019 13:00:00 21,1 12,0 9 5 ENE 1016,1 20 0,0
19.08.2019 12:00:00 - - - - - - - -
19.08.2019 11:00:00 18,0 11,6 15 8 ENE 1017,9 20 -
19.08.2019 10:00:00 - - - - - - - -
19.08.2019 09:00:00 - - - - - - - -
19.08.2019 08:00:00 15,1 10,1 11 6 NNE 1018,6 20 -
19.08.2019 07:00:00 - - - - - - - -
19.08.2019 06:00:00 - - - - - - - -
19.08.2019 05:00:00 - - - - - - - -
19.08.2019 04:00:00 - - - - - - - -
19.08.2019 03:00:00 - - - - - - - -
19.08.2019 02:00:00 - - - - - - - -
19.08.2019 01:00:00 - - - - - - - -
19.08.2019 00:00:00 21,2 10,9 11 6 N 1015,1 20 0,0
18.08.2019 23:00:00 22,7 11,4 8 4 NNW 1014,0 20 -
18.08.2019 22:00:00 24,7 10,6 5 3 WNW 1012,3 20 0,0
18.08.2019 21:00:00 26,7 11,6 9 5 WNW 1011,0 20 0,0
18.08.2019 20:00:00 28,1 12,8 8 4 W 1010,3 20 -
18.08.2019 19:00:00 28,5 12,8 9 5 W 1010,5 20 0,0
18.08.2019 18:00:00 28,6 13,7 8 4 W 1010,5 20 0,0
18.08.2019 17:00:00 29,4 14,4 11 6 WNW 1010,6 20 -
18.08.2019 16:00:00 29,2 15,0 11 6 W 1010,6 20 0,0
18.08.2019 15:00:00 28,7 14,9 9 5 WSW 1010,8 20 0,0
18.08.2019 14:00:00 27,1 14,5 9 5 W 1011,6 20 -
18.08.2019 13:00:00 25,2 14,3 5 3 W 1012,3 20 0,0
18.08.2019 12:00:00 23,0 13,7 9 5 WSW 1013,1 20 0,0
18.08.2019 11:00:00 20,4 13,6 8 4 W 1013,3 20 -
18.08.2019 10:00:00 19,9 13,6 9 5 WSW 1013,4 20 0,0
18.08.2019 09:00:00 18,2 13,5 5 3 W 1013,6 20 0,0
18.08.2019 08:00:00 17,0 13,1 8 4 WSW 1013,6 20 -
18.08.2019 07:00:00 17,5 12,6 9 5 WSW 1013,0 20 0,0

tt = temperature
td = dewpoint
ff = wind speed
dd = wind direction
ppp = reduced air pressure
vv = visibility
rr = precipitation

Next stations